Weather History for Fort Leonard Wood, MO

Change the Weather History Date:

Thursday, December 13, 2012

  Actual Average Record
Temperature  
Mean Temperature 42 °F -  
Max Temperature 56 °F 43 °F 62 °F (2006)
Min Temperature 27 °F 29 °F 2 °F (2010)
Degree Days  
Heating Degree Days 24    
Moisture  
Dew Point 21 °F    
Average Humidity 47    
Maximum Humidity 75    
Minimum Humidity 25    
Precipitation  
Precipitation 0.00 in - - ()
Sea Level Pressure  
Sea Level Pressure 30.23 in    
Wind  
Wind Speed 8 mph (SSE)    
Max Wind Speed 14 mph    
Max Gust Speed 20 mph    
Visibility 10 miles    
Events      
Averages and records for this station are not official NWS values.
T = Trace of Precipitation, MM = Missing Value Source: NWS Daily Summary

Daily Weather History Graph

Daily Weather History Graph

Search for Another Location

Airport:

Trip Planner

Search our weather history database for the weather conditions in past years. The results will help you decide how hot, cold, wet, or windy it might be!

Date:

Astronomy

Dec. 13, 2012 Rise Set
Actual Time 7:15 AM CST 4:50 PM CST
Civil Twilight 6:46 AM CST 5:19 PM CST
Nautical Twilight 6:13 AM CST 5:52 PM CST
Astronomical Twilight 5:41 AM CST 6:24 PM CST
Moon 7:24 AM CST (12/13) 5:32 PM CST (12/13)
Length of Visible Light 10h 33m
Length of Day
9h 34m
Waxing Crescent, 0% of the Moon is Illuminated
Dec 13
Waxing Crescent
Dec 19
First Quarter
Dec 28
Full
Jan 4
Last Quarter
Jan 11
New

Hourly Weather History & Observations

Time (CST) Temp. Windchill Dew Point Humidity Pressure Visibility Wind Dir Wind Speed Gust Speed Precip Events Conditions
12:55 AM 31.3 °F 25.6 °F 21.6 °F 67% 30.27 in 10.0 mi SSE 5.8 mph - N/A   Clear
1:55 AM 30.7 °F 24.1 °F 21.4 °F 68% 30.28 in 10.0 mi SSE 6.9 mph - N/A   Clear
2:55 AM 32.7 °F 25.0 °F 21.0 °F 62% 30.27 in 10.0 mi South 9.2 mph - N/A   Clear
3:55 AM 35.1 °F 27.9 °F 19.6 °F 53% 30.26 in 10.0 mi South 9.2 mph - N/A   Clear
4:55 AM 29.7 °F 21.3 °F 20.7 °F 69% 30.27 in 10.0 mi SSE 9.2 mph - N/A   Clear
5:55 AM 27.7 °F 19.6 °F 20.8 °F 75% 30.27 in 10.0 mi SE 8.1 mph - N/A   Clear
6:55 AM 28.6 °F 20.7 °F 21.0 °F 73% 30.27 in 10.0 mi SSE 8.1 mph - N/A   Clear
7:55 AM 31.5 °F 24.9 °F 21.2 °F 66% 30.28 in 10.0 mi SSE 6.9 mph - N/A   Clear
8:55 AM 37.4 °F 32.1 °F 21.6 °F 53% 30.28 in 10.0 mi SSE 6.9 mph - N/A   Clear
9:55 AM 46.9 °F - 19.2 °F 33% 30.27 in 10.0 mi South 11.5 mph - N/A   Clear
10:55 AM 50.5 °F - 17.8 °F 27% 30.26 in 10.0 mi South 13.8 mph 19.6 mph N/A   Clear
11:55 AM 53.1 °F - 17.6 °F 25% 30.24 in 10.0 mi South 11.5 mph 18.4 mph N/A   Clear
12:55 PM 54.7 °F - 19.9 °F 26% 30.22 in 10.0 mi South 10.4 mph - N/A   Clear
1:55 PM 56.1 °F - 21.2 °F 26% 30.19 in 10.0 mi SSE 11.5 mph - N/A   Clear
2:55 PM 56.8 °F - 22.1 °F 26% 30.18 in 10.0 mi Variable 6.9 mph - N/A   Clear
3:55 PM 54.3 °F - 23.0 °F 30% 30.18 in 10.0 mi South 10.4 mph - N/A   Clear
4:55 PM 50.2 °F - 23.0 °F 35% 30.18 in 10.0 mi South 9.2 mph - N/A   Clear
5:55 PM 46.9 °F - 22.6 °F 38% 30.18 in 10.0 mi SSE 8.1 mph - N/A   Clear
6:55 PM 44.8 °F 39.4 °F 23.0 °F 42% 30.17 in 10.0 mi SSE 10.4 mph - N/A   Clear
7:55 PM 44.1 °F 39.0 °F 22.5 °F 42% 30.18 in 10.0 mi South 9.2 mph - N/A   Clear
8:55 PM 41.9 °F 36.9 °F 22.8 °F 47% 30.17 in 10.0 mi SSE 8.1 mph - N/A   Clear
9:55 PM 42.3 °F 37.9 °F 22.5 °F 45% 30.17 in 10.0 mi Variable 6.9 mph - N/A   Clear
10:55 PM 40.8 °F 36.9 °F 23.4 °F 50% 30.19 in 10.0 mi South 5.8 mph - N/A   Clear
11:55 PM 40.1 °F 35.3 °F 23.4 °F 51% 30.19 in 10.0 mi South 6.9 mph - N/A   Clear